Weather History for KCAR - November, 2013

Change the Weather History Date:

Sunday, November 3, 2013

  Actual Average Record
Temperature  
Mean Temperature 31 °F 37 °F  
Max Temperature 37 °F 44 °F 63 °F (1951)
Min Temperature 25 °F 29 °F 15 °F (2002)
Degree Days  
Heating Degree Days 34 28  
Month to date heating degree days 68 84  
Since 1 July heating degree days 1024 1224  
Cooling Degree Days 0 0  
Month to date cooling degree days 0 0  
Year to date cooling degree days 192 180  
Moisture  
Dew Point 17 °F    
Average Humidity 58    
Maximum Humidity 68    
Minimum Humidity 47    
Precipitation  
Precipitation 0.00 in 0.13 in 1.63 in (2007)
Month to date precipitation 0.64 0.38  
Year to date precipitation 43.21 31.97  
Snow  
Snow 0.00 in 0.20 in 5.60 in (1943)
Month to date snowfall 0.0 0.5  
Since 1 July snowfall 1.0 2.2  
Since 1 September snowfall 1.0 2.2  
Snow Depth 0.00 in    
Sea Level Pressure  
Sea Level Pressure 30.12 in    
Wind  
Wind Speed 10 mph (NNW)    
Max Wind Speed 20 mph    
Max Gust Speed 26 mph    
Visibility 10 miles    
Events      
T = Trace of Precipitation, MM = Missing Value Source: NWS Daily Summary

Daily Weather History Graph

Daily Weather History Graph

Search for Another Location

Airport or City:

Trip Planner

Search our weather history database for the weather conditions in past years. The results will help you decide how hot, cold, wet, or windy it might be!

Date:

Astronomy

Nov. 03, 2013 Rise Set
Actual Time 6:17 AM EST 4:12 PM EST
Civil Twilight 5:45 AM EST 4:44 PM EST
Nautical Twilight 5:09 AM EST 5:20 PM EST
Astronomical Twilight 4:34 AM EST 5:56 PM EST
Moon 6:18 AM EST (11/3) 4:23 PM EST (11/3)
Length of Visible Light 10h 59m
Length of Day
9h 55m
New Moon, 0% of the Moon is Illuminated
Nov 3
New Moon
Nov 10
First Quarter
Nov 17
Full
Nov 25
Last Quarter
Dec 2
New

Hourly Weather History & Observations

Time (EST) Temp. Windchill Dew Point Humidity Pressure Visibility Wind Dir Wind Speed Gust Speed Precip Events Conditions
12:54 AM 30.9 °F 22.8 °F 19.0 °F 61% 29.87 in 10.0 mi NW 9.2 mph - N/A   Clear
1:54 AM 30.9 °F 22.8 °F 19.0 °F 61% 29.89 in 10.0 mi NNW 9.2 mph - N/A   Overcast
1:54 AM 30.0 °F 20.5 °F 18.0 °F 61% 29.89 in 10.0 mi NNW 11.5 mph 20.7 mph N/A   Mostly Cloudy
2:54 AM 28.9 °F 21.1 °F 18.0 °F 64% 29.94 in 10.0 mi NW 8.1 mph - N/A   Clear
3:54 AM 28.0 °F 20.0 °F 18.0 °F 66% 29.97 in 10.0 mi NW 8.1 mph - N/A   Clear
4:54 AM 27.0 °F 18.7 °F 18.0 °F 69% 29.98 in 10.0 mi NNW 8.1 mph - N/A   Clear
5:54 AM 26.1 °F 18.4 °F 18.0 °F 71% 30.00 in 10.0 mi NW 6.9 mph - N/A   Clear
6:54 AM 27.0 °F 20.5 °F 18.0 °F 69% 30.04 in 10.0 mi NW 5.8 mph - N/A   Clear
7:54 AM 30.0 °F 21.7 °F 18.0 °F 61% 30.08 in 10.0 mi NNW 9.2 mph - N/A   Scattered Clouds
8:54 AM 30.9 °F 19.4 °F 16.0 °F 54% 30.09 in 10.0 mi North 17.3 mph 23.0 mph N/A   Clear
9:54 AM 32.0 °F 22.1 °F 16.0 °F 52% 30.11 in 10.0 mi North 13.8 mph 23.0 mph N/A   Clear
10:54 AM 34.0 °F 24.6 °F 16.0 °F 48% 30.12 in 10.0 mi NNW 13.8 mph 19.6 mph N/A   Clear
11:54 AM 35.1 °F 27.9 °F 17.1 °F 48% 30.12 in 10.0 mi NNW 9.2 mph - N/A   Partly Cloudy
12:54 PM 36.0 °F 27.1 °F 19.0 °F 50% 30.13 in 10.0 mi NNW 13.8 mph 19.6 mph N/A   Clear
1:54 PM 36.0 °F 26.7 °F 17.1 °F 46% 30.14 in 10.0 mi NNW 15.0 mph 20.7 mph N/A   Clear
2:54 PM 36.0 °F 27.5 °F 17.1 °F 46% 30.17 in 10.0 mi NNW 12.7 mph - N/A   Clear
3:54 PM 34.0 °F 26.0 °F 17.1 °F 50% 30.20 in 10.0 mi NNW 10.4 mph - N/A   Clear
4:54 PM 32.0 °F 25.6 °F 15.1 °F 50% 30.24 in 10.0 mi NW 6.9 mph - N/A   Clear
5:54 PM 30.9 °F 22.2 °F 14.0 °F 50% 30.27 in 10.0 mi NNW 10.4 mph - N/A   Clear
6:54 PM 28.9 °F 21.9 °F 15.1 °F 56% 30.30 in 10.0 mi NNW 6.9 mph - N/A   Clear
7:54 PM 26.1 °F - 15.1 °F 63% 30.32 in 10.0 mi Calm Calm - N/A   Clear
8:54 PM 28.0 °F 20.0 °F 14.0 °F 56% 30.34 in 10.0 mi NNW 8.1 mph - N/A   Clear
9:54 PM 27.0 °F 17.3 °F 14.0 °F 58% 30.36 in 10.0 mi NNW 10.4 mph - N/A   Clear
10:54 PM 26.1 °F 17.6 °F 14.0 °F 60% 30.36 in 10.0 mi NW 8.1 mph - N/A   Clear